Regional Weather Roundup
Issued by NWS

Home | Current Version | Previous Version | Graphics & Text | Print | Product List | Glossary On
Versions: 1 2 3 4 5 6 7 8 9 10 11 12 13 14 15 16 17 18 19 20 21 22 23 24 25 26 27 28 29 30 31 32 33 34 35 36 37 38 39 40 41 42 43 44 45 46 47 48 49 50
024
ASUS43 KOAX 230202
RWRNE

WEATHER ROUNDUP FOR NEBRASKA
NATIONAL WEATHER SERVICE OMAHA NE
900 PM CDT WED MAR 22 2017

NOTES: SATELLITE DATA IS BEING USED TO AUGMENT CLOUD COVER ABOVE
       12000 FEET.
       "FAIR" INDICATES FEW OR NO CLOUDS BELOW 12,000 FEET WITH NO
       SIGNIFICANT WEATHER AND/OR OBSTRUCTIONS TO VISIBILITY.

  * THESE STATIONS DO NOT REPORT WEATHER SUCH AS RAIN...SNOW OR FOG.

NEZ001>004-019>022-054>056-230300-
NEBRASKA PANHANDLE

CITY           SKY/WX    TMP DP  RH WIND       PRES   REMARKS
SCOTTSBLUFF    CLOUDY    58  35  42 E18       29.81S
ALLIANCE       CLOUDY    52  36  54 SE16      29.84R
CHADRON        CLEAR     59  37  44 S24G30    29.77F
KIMBALL        CLOUDY    57  38  49 SE17      29.85S
SIDNEY         CLOUDY    51  36  56 S20       29.86S
$$

NEZ057>060-069>072-079>082-230300-
SOUTHWEST NEBRASKA

CITY           SKY/WX    TMP DP  RH WIND       PRES   REMARKS
NORTH PLATTE   CLOUDY    47  30  51 SE13      29.99R
IMPERIAL       CLOUDY    48  32  53 SE18      29.94S
LEXINGTON      CLOUDY    49  27  43 SE14      30.03S
MCCOOK         PTCLDY    47  32  56 SE14      30.00S
OGALLALA       CLOUDY    50  33  52 SE12      29.93S
$$

NEZ005>010-023>029-035>040-094-230300-
NORTH CENTRAL NEBRASKA

CITY           SKY/WX    TMP DP  RH WIND       PRES   REMARKS
VALENTINE      CLOUDY    47  30  51 S16       29.91S
AINSWORTH      CLOUDY    46  32  57 S17G23    29.95S
BROKEN BOW     CLOUDY    48  27  44 S21G30    30.01S
O`NEILL        CLOUDY    51  20  29 S20       30.01S
ORD            CLOUDY    50  23  34 S18G24    30.04R
THEDFORD       PTCLDY    46  31  56 S12       29.96S
$$

NEZ041-046>049-061>064-073>077-083>087-230300-
SOUTH CENTRAL NEBRASKA

CITY           SKY/WX    TMP DP  RH WIND       PRES   REMARKS
GRAND ISLAND   CLOUDY    51  24  34 SE17G23   30.07F
AURORA         CLOUDY    52  23  31 S10       30.08S
HASTINGS       CLOUDY    52  23  32 SE10      30.08F
HEBRON         CLOUDY    53  23  31 SE16      30.11S
HOLDREGE       CLOUDY    50  25  38 SE15      30.04F
KEARNEY *      CLOUDY    50  23  34 SE12      30.05F
YORK           CLOUDY    54  19  26 S14       30.09F
$$

NEZ011>018-030>034-042>045-230300-
NORTHEAST NEBRASKA

CITY           SKY/WX    TMP DP  RH WIND       PRES   REMARKS
NORFOLK        CLOUDY    44  23  43 SE16      30.08F
ALBION         CLOUDY    49  19  30 SE14G21   30.07S
BLAIR          CLOUDY    46  26  45 SE15G25   30.16S
FREMONT        CLOUDY    47  27  45 E13G22    30.15S
TEKAMAH        CLOUDY    46  24  42 SE18      30.17S
WAYNE          CLOUDY    40  28  63 SE14      30.12F WCI  32
$$

NEZ050>053-065>068-078-088>093-230300-
SOUTHEAST NEBRASKA

CITY           SKY/WX    TMP DP  RH WIND       PRES   REMARKS
LINCOLN        CLOUDY    52  26  36 SE15      30.15S
OMAHA EPPLEY   CLOUDY    47  24  40 SE16      30.19S
BEATRICE       CLOUDY    54  26  35 SE13      30.12F
FALLS CITY     CLOUDY    51  25  36 E15       30.17S
NEBRASKA CITY  CLOUDY    48  19  31 SE14G20   30.17S
$$

NEZ044-045-051>053-067-230300-
OMAHA AREA

CITY           SKY/WX    TMP DP  RH WIND       PRES   REMARKS
OMAHA EPPLEY   CLOUDY    47  24  40 SE16      30.19S
BLAIR          CLOUDY    46  26  45 SE15G25   30.16S
FREMONT        CLOUDY    47  27  45 E13G22    30.15S
MILLARD        CLOUDY    48  28  44 SE13G18   30.17S
OFFUTT AFB     CLOUDY    46  24  41 E20       30.18R
WAHOO          CLOUDY    47  25  42 SE16      30.15S
$$




USA.gov is the U.S. government's official web portal to all federal, state and local government web resources and services.